ECMWFNIL_700_spd_000.txt.gz
Wind_Speed
25 24 23 24 25 25 24 24 24 22 22 24 26 28 29 29 31 31 31 32 33 32 32 32 33 34 35 34 33 35 36 35 36 36 35 37 40 42 40 37 39 41
26 25 25 24 24 24 24 22 22 22 24 25 26 28 30 31 32 33 33 33 33 33 33 33 33 33 35 35 34 35 35 34 34 33 32 33 35 38 39 38 39 39
25 25 25 25 24 25 25 24 23 25 26 26 28 29 31 33 34 35 35 35 34 35 35 34 34 34 35 34 34 34 34 34 35 34 32 30 32 35 37 37 38 38
24 24 25 25 24 24 25 26 26 27 28 29 31 32 33 34 35 35 36 37 38 37 36 37 37 37 37 36 34 35 35 33 34 35 35 32 30 32 35 35 36 37
23 23 24 24 24 23 23 24 26 28 29 31 32 33 34 34 34 35 35 38 40 38 36 37 38 38 39 38 36 36 36 36 35 35 36 34 31 30 32 34 35 36
21 22 22 22 23 23 22 23 24 26 28 30 32 33 33 34 34 34 35 36 38 36 35 37 38 38 39 39 37 36 36 37 37 37 37 36 34 32 31 33 35 36
20 21 22 22 22 22 23 24 24 26 26 28 29 30 32 32 32 33 33 33 34 33 33 35 37 37 38 38 37 36 35 36 38 39 38 37 37 37 35 35 35 36
21 21 22 23 23 23 24 25 25 25 25 25 26 27 28 28 29 30 31 31 31 31 31 32 33 33 34 35 37 36 37 38 39 39 38 39 39 39 38 37 36 36
21 22 23 24 24 24 24 24 24 24 25 25 25 25 24 24 26 28 29 29 29 28 27 27 29 29 29 30 33 35 36 38 38 38 38 40 41 41 41 39 37 36
21 21 23 24 23 21 22 22 22 23 24 25 24 23 21 21 22 25 26 27 27 26 25 24 25 27 27 27 29 32 34 35 36 37 38 41 43 44 44 43 41 40
21 21 22 23 21 20 20 22 23 23 23 23 23 21 19 19 21 23 25 25 24 24 24 22 22 24 24 24 26 29 32 34 35 37 39 42 45 46 46 46 45 44
20 21 21 21 20 20 21 22 23 23 23 22 20 18 16 19 21 22 23 23 22 22 22 21 20 21 22 23 25 27 30 34 36 37 39 41 44 47 47 47 47 46
20 20 19 18 18 19 20 20 20 21 22 21 17 14 16 21 22 22 21 21 19 19 19 19 17 18 20 22 24 26 29 33 36 39 41 42 44 46 48 49 48 47
18 18 17 16 18 19 19 18 18 19 20 19 16 15 17 21 22 21 19 18 17 16 16 16 15 15 16 19 21 23 26 31 35 37 40 42 44 45 46 47 48 48
18 17 17 17 19 19 19 18 18 18 17 17 16 16 17 19 20 21 20 17 16 15 15 15 14 13 15 18 20 21 22 25 28 29 31 35 40 42 42 43 45 47
18 18 17 18 19 19 20 19 18 18 16 15 16 17 17 18 19 21 21 20 17 15 15 15 14 14 17 20 21 22 22 23 23 25 26 30 34 38 39 39 40 43
17 18 18 18 19 20 20 18 17 17 16 16 17 17 17 19 20 21 21 20 19 15 13 14 15 15 18 19 21 23 23 22 24 26 26 27 29 33 36 37 38 40
16 16 17 18 19 20 19 17 17 18 17 18 18 17 18 19 20 22 22 21 19 17 15 14 16 16 18 19 20 19 17 18 21 23 24 22 22 26 31 35 37 37
16 16 16 17 18 18 19 18 18 18 19 19 18 18 19 20 21 23 23 21 19 19 18 16 16 17 17 19 21 19 16 17 18 17 19 19 19 21 24 28 32 34
19 17 17 17 18 18 18 19 19 19 20 19 18 19 19 20 22 24 23 22 21 22 22 19 17 17 16 17 18 18 17 18 17 15 16 17 18 18 18 20 24 29
20 20 19 18 19 18 18 20 19 19 19 18 18 19 20 21 22 23 23 23 22 22 22 20 18 17 15 14 15 16 15 14 14 13 13 13 15 16 16 16 19 23
20 21 20 19 19 19 19 19 19 18 19 18 18 19 20 20 21 22 23 23 22 23 22 20 19 17 14 13 14 14 14 12 11 11 10 11 12 13 16 17 19 21
21 21 20 19 19 19 19 18 19 19 19 19 19 18 19 19 21 22 22 22 22 24 24 21 18 16 13 12 13 14 12 11 11 11 10 9 7 7 14 16 17 20
22 22 20 19 19 19 19 18 18 19 18 19 19 19 19 19 19 20 20 21 21 24 25 22 18 16 14 12 13 13 10 8 8 8 4 1 2 2 11 16 15 16
22 23 22 19 18 19 19 18 18 18 17 17 19 20 20 20 19 19 19 20 21 23 25 23 19 16 14 12 12 13 11 5 2 4 3 3 2 1 8 15 16 15
21 23 22 19 18 18 18 18 18 18 17 17 18 20 20 20 20 19 19 19 19 21 25 24 21 19 15 12 13 14 11 7 4 1 4 5 4 3 3 11 15 18

ECMWFNIL_700_spd_003.txt.gz
Wind_Speed
28 26 24 23 22 22 22 23 26 28 28 27 27 27 26 24 24 25 27 28 29 30 30 31 32 33 35 36 36 37 37 37 38 39 39 39 40 42 43 43 43 43
29 27 25 23 23 21 20 20 21 24 25 25 25 26 26 25 25 26 27 28 29 30 30 30 31 33 36 37 38 38 38 38 38 38 37 37 38 39 40 40 40 41
30 29 27 26 24 22 20 19 19 19 21 22 23 25 26 27 27 28 29 30 31 32 32 32 33 34 37 38 40 40 40 39 38 37 38 37 37 38 38 37 37 39
28 29 29 28 27 25 22 20 19 19 20 21 23 24 25 26 28 29 31 32 33 34 33 34 34 35 36 38 40 41 42 41 40 38 40 40 38 37 37 37 37 37
26 27 28 28 27 26 25 23 22 21 21 21 23 24 25 25 26 28 29 31 33 34 34 34 35 35 36 38 40 42 42 44 43 41 42 42 40 38 37 38 39 39
25 26 26 26 26 25 25 24 23 22 22 22 22 24 25 26 27 28 29 30 31 33 33 34 35 36 36 37 40 41 42 44 44 43 44 43 42 41 39 39 40 40
25 26 26 25 25 24 25 24 23 22 22 22 22 23 25 26 28 29 29 30 30 32 32 33 34 36 37 38 39 40 40 42 44 44 45 43 43 44 42 40 40 41
26 26 25 24 23 23 24 24 23 21 21 21 21 23 25 26 27 28 28 29 29 30 31 32 32 34 36 37 38 38 38 40 43 45 46 44 43 45 44 42 42 43
27 25 23 23 23 22 22 22 22 21 21 21 22 23 24 25 26 26 26 27 28 28 29 30 30 31 33 34 35 35 36 38 40 43 45 45 44 45 44 43 43 44
26 24 23 22 21 20 19 19 19 21 21 21 21 21 21 22 22 23 24 25 26 27 28 29 29 29 30 30 31 33 33 35 36 38 41 43 44 44 44 43 43 43
25 23 22 21 19 17 16 17 18 20 20 21 20 19 18 18 18 20 21 22 25 27 28 28 28 28 28 27 27 30 31 32 33 35 36 38 40 42 43 43 44 44
23 22 21 19 16 15 16 17 18 19 20 21 20 19 18 18 18 20 21 23 26 28 29 28 26 26 26 25 24 26 28 29 30 32 34 35 37 39 40 42 43 44
23 21 20 18 16 15 16 17 18 19 20 20 20 20 20 21 21 21 22 23 25 27 28 28 26 24 24 24 24 24 26 28 30 31 33 34 35 37 39 41 42 44
22 21 19 17 16 15 16 18 18 19 20 20 21 21 21 22 22 22 22 22 23 24 26 25 23 22 23 23 23 23 24 26 30 31 32 34 35 37 39 41 43 44
22 20 18 17 16 15 15 17 17 18 19 21 22 22 22 21 21 22 22 22 21 21 22 20 17 17 20 22 23 24 24 24 27 29 30 32 34 36 38 41 43 45
21 20 19 17 16 15 15 16 17 17 18 20 23 24 22 18 19 22 24 23 21 20 19 18 17 18 16 19 25 29 28 25 24 26 29 32 34 34 35 38 39 41
21 20 19 18 17 17 17 17 18 18 20 21 23 24 22 20 21 23 24 24 22 20 20 20 20 21 18 17 22 28 30 28 25 26 28 31 34 35 35 36 37 37
21 21 20 19 18 17 17 18 18 19 21 22 22 23 23 21 22 23 24 25 24 21 23 24 23 22 21 19 19 23 26 28 27 27 28 29 29 30 33 35 36 36
22 22 21 20 19 18 17 17 18 19 20 21 21 22 22 22 22 23 25 26 25 24 25 28 28 26 23 21 20 20 22 24 26 28 28 27 27 28 29 30 31 33
21 22 22 21 21 19 17 17 17 19 20 20 21 21 22 22 22 24 25 26 26 27 27 30 31 27 25 24 22 21 21 22 24 26 26 25 24 26 27 28 29 31
21 21 22 22 22 20 18 17 17 18 20 21 21 21 21 21 22 23 25 25 26 27 27 30 31 29 28 26 22 21 21 22 22 22 22 22 21 22 25 28 30 31
21 22 22 22 23 21 19 17 17 18 19 21 21 20 20 21 21 23 24 24 24 26 27 29 29 31 33 30 24 21 19 19 20 19 17 18 18 18 21 24 26 28
23 23 23 23 23 22 20 18 16 17 19 21 21 20 20 22 22 23 24 23 23 24 26 28 28 30 35 35 27 21 18 17 16 13 12 12 13 16 19 19 20 23
23 23 22 22 23 23 21 18 17 17 18 20 21 21 21 23 23 23 24 24 23 23 24 27 28 29 33 35 31 23 16 17 20 11 7 9 12 15 16 15 16 18
24 22 21 21 22 22 21 19 18 17 18 19 21 21 22 23 23 24 24 24 23 22 22 24 26 27 30 32 34 30 18 14 20 19 9 7 12 17 14 8 10 13
22 20 19 20 20 20 20 19 18 18 18 19 20 21 22 24 24 24 24 23 22 21 21 22 23 24 27 27 31 34 26 15 15 17 16 11 6 12 14 7 5 3

ECMWFNIL_700_spd_006.txt.gz
Wind_Speed
26 25 24 24 24 24 23 22 22 23 23 24 24 24 24 24 24 23 23 23 22 23 25 27 29 30 31 33 34 35 36 36 36 36 36 37 37 37 37 38 39 40
26 26 25 25 25 25 25 24 22 21 21 22 23 23 23 23 23 23 23 24 24 24 26 27 29 30 31 32 33 35 36 37 37 37 37 38 38 38 38 38 38 40
26 26 26 27 27 27 27 25 24 22 20 20 21 22 23 24 24 24 25 25 26 26 27 28 30 32 33 33 35 36 38 38 39 39 40 40 40 40 39 38 38 40
25 26 26 27 27 27 27 25 24 23 22 20 20 21 22 24 25 26 26 27 27 27 27 29 30 33 35 36 38 39 40 41 41 41 42 43 42 42 41 40 40 40
24 25 26 26 25 25 25 25 24 23 22 21 21 21 22 23 25 26 27 27 27 28 28 28 29 31 33 36 38 41 42 43 43 42 43 44 43 43 43 42 42 42
24 25 25 24 24 24 24 24 24 23 22 21 21 21 22 23 24 25 27 28 28 28 28 28 28 29 31 33 35 37 40 42 43 43 44 44 44 44 44 44 44 44
24 24 24 23 23 22 22 22 22 21 20 20 20 21 22 23 24 25 27 28 29 29 29 29 28 28 29 31 33 35 36 38 40 42 44 44 44 44 44 45 45 46
24 24 24 24 22 22 22 21 20 19 19 18 19 20 21 22 23 24 25 26 27 28 27 27 26 27 28 30 32 34 36 37 37 39 42 43 43 43 44 44 45 45
24 25 25 24 23 22 21 20 18 18 18 18 19 20 20 21 21 21 21 22 23 23 24 24 25 27 28 29 30 32 34 36 37 37 39 41 43 43 43 43 43 44
24 25 25 24 23 21 20 20 19 19 19 19 19 20 21 21 21 20 20 20 20 21 22 24 27 28 30 31 32 33 34 35 35 35 36 38 40 41 41 42 42 42
24 24 25 24 23 21 21 21 21 21 21 21 20 20 21 22 21 21 21 20 19 21 22 24 27 29 30 32 33 33 34 34 33 32 33 35 37 38 39 39 41 41
24 23 23 23 22 21 20 21 21 21 21 21 20 20 21 23 24 23 22 19 18 21 23 25 26 27 28 29 30 30 30 31 31 30 30 33 35 36 36 37 38 39
22 22 22 22 21 20 20 20 21 20 20 20 20 21 22 24 25 24 21 18 18 21 24 26 26 25 26 27 30 31 30 28 29 29 30 32 33 33 33 34 35 36
22 22 22 21 21 20 19 20 20 20 20 19 20 21 22 23 24 23 20 19 20 23 24 25 25 25 26 27 29 31 30 27 27 29 30 30 30 30 31 33 33 34
21 22 21 21 20 19 19 19 20 20 19 19 20 21 21 22 23 23 22 21 22 22 22 23 25 26 27 27 27 27 27 26 26 28 30 31 31 30 31 32 32 32
21 22 21 21 20 19 18 18 18 19 19 19 19 20 21 22 22 23 23 23 22 22 22 24 25 26 27 27 28 27 26 25 25 26 29 32 34 33 31 29 29 29
22 22 21 21 20 19 18 18 17 18 18 18 19 19 20 21 22 22 22 23 22 22 22 24 24 26 28 29 31 32 30 27 26 26 26 28 30 31 30 28 27 28
24 23 22 21 21 20 20 19 18 18 19 19 19 19 20 21 21 21 22 23 22 21 22 23 24 26 28 30 33 35 35 31 28 27 27 26 25 27 28 28 29 30
24 23 22 22 22 22 22 22 21 20 20 21 20 19 20 20 20 21 22 23 22 21 21 23 24 25 27 31 34 35 38 37 29 26 27 27 25 25 26 28 29 31
23 23 23 23 23 23 24 24 23 21 21 21 20 19 19 19 19 20 21 22 22 22 21 22 23 24 26 30 34 35 39 40 31 24 25 26 26 25 25 26 27 29
21 21 22 23 24 24 24 24 24 22 21 20 18 18 19 19 19 20 21 22 22 22 21 21 22 24 25 28 32 34 38 41 33 23 23 23 20 21 22 23 24 26
20 20 22 24 25 25 24 24 23 21 20 19 18 17 18 19 20 21 22 23 23 22 21 20 21 23 24 26 30 31 35 40 35 23 21 23 18 12 15 16 18 22
20 21 23 25 25 24 23 22 22 21 19 19 18 18 18 19 20 21 23 23 23 22 21 19 20 22 23 25 27 29 33 38 38 25 18 22 24 12 10 13 15 17
20 21 23 24 23 22 21 20 20 20 19 19 19 19 20 20 20 21 22 23 23 22 20 18 19 21 22 23 25 28 30 34 39 33 20 19 24 18 9 13 15 13
21 22 23 23 22 21 20 20 20 20 20 20 20 20 20 20 20 20 21 21 21 21 19 18 18 20 21 22 22 25 28 31 36 38 30 21 21 21 14 12 12 13
20 22 23 23 22 20 20 20 20 20 21 21 21 21 20 20 20 20 20 19 19 19 18 18 18 19 20 21 21 21 25 29 31 36 37 29 21 19 16 12 11 12

ECMWFNIL_700_spd_009.txt.gz
Wind_Speed
24 24 23 23 24 24 25 25 25 24 23 22 21 20 20 20 21 22 23 25 25 26 27 27 28 28 28 28 27 27 28 29 29 30 32 33 32 31 31 32 34 36
24 24 24 24 24 25 26 26 26 25 24 23 22 21 20 20 20 21 22 23 24 25 27 27 28 28 29 30 30 30 29 30 31 31 32 33 33 33 34 36 38 39
23 23 24 24 24 25 26 26 26 25 25 24 23 23 21 20 20 20 21 23 24 25 26 27 28 29 30 30 31 32 32 32 33 33 34 35 35 36 36 38 39 40
23 23 23 24 25 25 26 26 26 26 25 24 23 22 21 20 19 19 19 21 23 24 26 27 28 29 30 31 31 32 33 33 33 35 37 37 38 39 39 39 40 41
22 22 22 23 24 25 25 25 25 25 25 23 22 21 20 19 19 18 19 20 21 23 25 27 28 29 30 30 31 32 33 33 33 34 36 38 38 40 41 43 44 44
21 21 22 23 24 25 25 25 24 24 23 22 21 20 19 19 19 19 19 20 20 21 22 24 26 27 28 29 30 30 30 31 32 32 34 36 37 38 40 43 45 47
20 21 23 24 25 25 24 24 24 23 21 20 20 20 20 20 20 20 20 20 20 21 21 22 23 23 24 25 26 27 28 29 30 31 31 33 36 37 39 41 43 46
21 22 24 24 24 24 24 23 23 21 20 20 20 21 21 21 20 20 20 21 21 21 21 21 21 21 22 24 25 26 28 29 31 32 32 33 34 35 37 40 42 43
22 23 24 24 24 23 23 23 22 20 20 19 19 20 20 20 19 19 20 21 21 20 19 19 19 20 21 23 25 27 28 30 31 31 33 33 33 33 34 37 40 42
22 23 24 24 23 23 23 22 21 20 19 18 18 19 19 19 20 20 20 21 20 18 17 18 19 20 22 23 25 27 28 29 30 31 32 34 34 34 33 33 36 40
23 23 23 23 22 22 23 23 22 21 19 19 18 19 19 19 20 20 20 20 19 17 16 17 19 20 21 23 24 24 25 26 28 30 32 33 34 35 35 34 34 36
22 23 24 23 22 22 22 23 22 21 20 19 19 18 19 19 19 20 20 19 19 18 17 17 18 19 22 24 24 24 25 26 27 28 30 31 32 33 34 34 34 34
22 23 24 24 23 22 21 21 21 21 21 21 20 19 19 19 19 19 20 19 19 19 19 19 19 19 21 23 24 25 27 29 29 30 31 32 32 31 31 32 34 33
23 24 25 25 25 23 21 20 20 21 21 22 21 20 20 20 20 19 19 18 18 18 19 20 20 21 22 22 24 26 28 30 31 33 36 35 32 30 30 30 32 33
25 25 25 26 26 24 22 20 20 20 21 22 22 21 21 21 21 20 18 17 17 18 19 20 21 22 23 23 24 26 28 30 32 35 39 40 33 28 29 30 30 32
26 26 26 25 26 25 23 21 20 20 21 22 22 21 20 20 20 19 18 16 15 17 18 19 21 22 23 23 24 26 28 30 33 35 40 42 35 28 28 29 28 30
26 26 26 25 25 24 23 22 21 21 21 22 22 21 19 18 18 18 17 16 16 17 17 19 21 22 23 24 24 26 27 30 33 35 41 44 36 27 27 29 26 26
26 26 26 25 24 23 23 22 21 21 22 22 22 20 17 16 16 16 17 17 17 18 18 20 21 23 23 24 24 24 25 28 33 36 42 46 36 26 25 26 24 23
26 26 26 24 23 23 23 22 22 22 22 23 21 19 17 16 16 16 16 17 18 19 20 20 22 23 24 23 23 23 24 26 31 35 41 45 35 25 24 22 18 19
25 26 26 24 23 23 23 23 23 22 22 22 20 19 17 16 16 16 17 18 19 20 21 21 21 23 23 23 23 23 22 25 29 34 40 44 35 25 23 21 13 10
25 25 25 24 22 22 22 22 22 22 21 20 18 18 17 16 16 16 18 19 20 21 21 21 21 23 22 22 22 22 21 23 27 32 38 41 38 30 26 22 17 13
24 24 24 23 22 21 21 21 22 21 20 18 17 16 17 17 17 17 18 19 20 20 20 20 21 22 22 21 21 20 20 21 24 30 36 40 40 37 32 26 21 18
24 24 24 23 22 22 21 21 21 21 20 18 16 16 17 18 17 17 17 18 19 20 20 20 20 20 20 20 21 20 19 20 22 28 35 39 39 38 37 30 22 19
24 24 23 22 21 21 21 21 21 21 20 18 16 16 18 18 17 16 16 17 18 19 20 20 19 19 19 19 20 20 19 19 21 25 32 37 37 35 37 35 27 20
25 25 23 21 21 21 21 21 21 21 20 18 17 17 18 17 16 15 15 16 17 18 20 20 20 20 20 19 19 20 19 19 20 23 28 33 35 33 33 36 35 27
25 25 23 20 20 20 20 21 21 20 19 18 16 17 17 16 15 15 15 16 17 18 20 21 21 21 20 19 19 19 19 19 20 21 24 28 31 31 30 31 35 36

ECMWFNIL_700_spd_012.txt.gz
Wind_Speed
24 24 23 22 22 22 21 21 21 21 22 22 22 22 22 21 19 19 19 18 18 19 20 21 22 24 25 25 26 27 28 28 28 28 28 27 28 30 31 31 31 32
25 23 22 21 21 21 21 21 22 22 23 23 23 23 22 20 19 19 18 17 18 19 19 20 21 23 24 25 26 27 27 28 29 29 29 29 30 31 31 31 31 33
24 22 21 20 20 20 21 22 23 23 23 23 23 22 20 19 18 17 17 17 18 19 20 20 21 22 23 25 26 27 26 27 29 30 30 30 31 32 33 33 33 34
22 20 19 19 19 20 22 23 24 24 23 23 21 20 18 17 16 16 17 17 18 19 20 21 21 22 23 24 25 25 26 26 27 28 29 29 30 32 33 34 34 35
21 19 19 19 20 21 23 23 24 24 23 22 20 19 17 16 15 15 16 17 18 19 19 20 21 22 23 23 23 23 24 25 25 25 26 27 28 30 31 33 34 34
20 20 20 21 22 22 23 23 23 23 22 21 20 19 17 16 15 15 15 15 16 17 18 19 20 21 22 22 22 22 22 23 25 26 27 27 27 29 30 32 34 34
20 21 21 22 22 22 23 23 23 23 21 21 21 20 18 17 15 15 15 15 15 16 17 18 18 19 20 21 21 21 21 22 24 25 26 27 27 29 30 33 35 36
21 21 21 21 21 22 22 23 22 21 20 19 19 19 18 17 16 16 16 16 15 16 17 17 17 17 18 19 20 20 20 21 22 22 23 23 24 26 28 31 34 37
20 20 20 20 20 21 22 23 22 21 20 19 19 19 18 17 17 16 17 17 17 17 17 17 17 17 18 19 19 20 19 19 20 22 23 24 24 24 25 28 32 35
19 18 18 19 20 22 22 23 23 22 21 20 20 19 18 18 18 17 18 18 18 18 18 18 18 18 18 19 20 20 20 19 20 23 24 25 26 26 28 30 33 34
18 17 18 19 21 22 23 23 22 22 22 21 20 19 18 19 19 19 19 19 20 20 20 19 19 19 20 20 20 21 21 20 21 22 24 25 26 29 31 35 37 36
17 17 18 20 21 22 22 22 22 22 21 21 21 20 19 19 19 19 19 20 21 22 21 19 19 20 21 21 21 22 22 23 23 23 25 27 28 30 34 38 41 39
17 18 19 21 21 22 22 21 21 21 21 21 22 21 20 19 19 18 19 20 22 23 21 20 20 21 22 23 23 23 24 24 24 25 27 29 30 32 35 41 42 38
18 19 20 21 22 22 21 20 20 21 21 22 22 22 21 20 19 19 19 20 22 23 22 20 20 22 23 24 24 24 25 25 25 26 28 30 31 33 37 42 41 34
18 20 21 21 22 21 19 19 20 21 21 22 22 22 21 21 20 19 19 19 20 22 22 21 21 22 23 25 26 25 26 26 25 26 29 30 32 34 38 42 38 28
19 20 21 21 21 19 18 19 21 22 22 22 22 22 21 21 21 20 19 19 20 21 22 21 22 23 24 26 26 26 26 26 25 26 28 30 32 35 39 40 33 25
19 20 21 21 20 18 18 20 22 23 22 21 21 20 19 20 20 20 19 19 20 21 22 22 22 24 26 27 26 26 26 25 24 25 27 30 31 35 39 38 31 24
19 20 21 21 20 18 19 21 22 22 22 20 19 18 18 18 18 18 18 18 20 21 21 22 22 23 25 26 25 25 25 23 23 24 26 28 30 35 38 36 34 28
20 21 21 21 20 19 20 22 22 21 20 19 19 18 17 17 16 16 17 17 18 19 19 20 21 22 24 25 24 24 23 21 22 23 24 26 29 34 37 35 37 35
21 22 22 21 20 20 20 21 21 20 19 18 18 18 18 17 15 15 16 16 17 18 18 18 19 21 23 23 24 23 20 19 20 21 23 25 27 32 36 34 37 40
22 22 22 22 21 20 20 20 21 19 18 18 18 18 18 16 15 15 15 15 16 17 17 16 17 19 21 22 22 21 19 18 18 19 21 23 26 30 33 33 35 39
23 23 23 22 22 21 20 20 20 19 18 18 18 18 17 15 14 14 14 15 16 17 16 15 16 18 19 20 21 20 19 18 18 19 20 21 24 27 30 31 32 36
24 25 24 23 22 22 20 20 20 19 19 19 18 17 17 15 14 14 15 15 16 16 16 15 16 17 18 19 20 20 19 18 18 18 20 20 21 24 26 29 30 32
26 27 26 24 23 23 21 20 20 20 20 19 18 17 16 15 14 14 14 15 15 15 15 15 16 17 18 19 20 19 18 17 17 17 19 19 20 21 23 26 28 28
28 28 27 26 25 24 23 21 21 22 21 20 19 18 16 14 13 13 13 13 14 14 15 15 16 17 18 19 19 19 18 17 16 16 17 18 19 19 20 22 25 26
29 28 28 27 26 24 24 23 23 23 22 20 19 18 16 15 14 13 13 13 14 15 15 16 17 17 17 18 19 18 17 17 17 16 16 17 18 19 18 19 21 23

ECMWFNIL_700_spd_015.txt.gz
Wind_Speed
21 21 21 20 19 18 18 17 18 19 21 22 22 22 22 21 20 20 19 18 18 18 18 19 20 20 20 20 21 21 22 23 23 23 22 22 25 26 25 26 27 29
21 21 21 20 19 19 18 18 19 21 22 23 22 22 21 19 18 19 19 18 17 17 18 19 19 20 20 20 21 22 23 23 22 23 23 22 23 24 25 26 26 28
21 21 21 21 20 20 19 20 21 21 22 22 22 21 20 18 18 18 18 18 17 17 18 18 19 20 20 20 21 22 23 23 22 22 22 23 23 24 24 25 26 27
21 22 22 22 21 21 21 20 21 21 22 22 21 21 20 18 18 18 18 18 18 17 18 18 19 20 20 20 20 21 22 22 22 22 22 23 24 23 23 24 24 26
22 23 23 23 22 22 21 20 20 21 21 22 22 21 20 18 18 17 17 17 17 17 18 19 20 20 21 21 20 20 20 21 22 23 23 24 23 21 21 22 22 23
24 24 24 24 23 22 21 20 20 20 21 22 22 22 21 19 18 18 18 17 17 17 17 18 20 21 22 22 21 21 21 21 21 22 23 22 21 20 21 22 22 22
25 25 25 24 23 22 20 20 20 20 21 21 21 22 21 19 19 19 19 19 19 19 18 18 19 21 22 22 22 22 22 22 22 21 21 21 21 21 21 22 23 24
27 26 25 24 22 21 21 21 21 22 22 22 21 21 21 20 19 19 19 20 21 21 20 19 19 20 22 22 22 22 23 23 23 23 21 21 21 22 22 23 24 25
28 26 24 23 22 21 21 21 23 23 23 23 22 21 21 20 19 19 20 20 21 22 22 21 21 21 21 23 24 23 23 23 24 24 23 23 23 23 24 25 26 28
28 25 23 22 21 21 22 22 23 22 21 23 23 21 20 20 20 20 20 21 21 22 22 22 22 21 22 24 24 24 23 23 24 23 24 25 25 25 26 27 29 31
27 24 22 21 20 21 22 22 22 21 21 22 21 20 20 20 21 21 21 21 21 22 23 23 22 22 23 24 24 24 23 23 23 24 25 26 26 27 27 28 30 33
25 22 21 20 20 21 22 22 22 22 22 21 20 20 20 20 21 22 21 21 22 23 24 25 24 23 24 26 25 25 24 23 23 24 25 26 26 27 27 28 31 33
23 21 19 20 21 22 22 22 22 21 21 21 21 21 21 21 22 22 22 22 22 23 23 24 25 25 26 27 27 27 27 25 24 24 25 25 26 27 27 29 30 32
21 20 20 20 21 22 22 22 21 21 20 21 22 23 22 21 22 22 21 21 22 22 22 23 24 26 27 27 28 28 27 26 25 26 26 25 26 27 27 28 29 30
20 20 20 20 20 21 22 22 21 20 21 22 23 23 22 22 22 21 20 21 21 20 20 22 24 26 26 25 26 27 26 27 28 28 27 25 25 26 26 26 28 30
19 19 19 19 20 21 22 21 20 20 20 22 22 22 22 21 20 20 20 20 20 19 19 21 24 25 24 24 25 26 26 28 28 28 27 25 25 25 25 25 27 29
19 19 19 19 20 21 21 21 20 19 20 22 22 21 21 20 19 19 19 19 19 19 20 21 23 24 25 25 26 26 26 27 27 26 25 24 24 25 25 25 26 28
20 20 19 20 21 21 22 21 20 19 20 21 22 21 20 19 19 19 19 19 19 20 21 21 22 23 24 25 26 25 25 25 25 25 24 23 24 25 25 25 25 27
20 20 20 21 22 23 23 21 20 20 20 21 21 20 19 19 20 20 20 19 19 20 21 21 21 22 23 23 24 24 24 24 23 23 24 23 23 24 24 25 26 28
21 21 22 22 23 24 24 23 22 21 21 22 21 20 20 20 21 21 20 20 20 20 21 20 20 21 22 22 23 23 24 24 23 23 23 24 24 24 24 25 26 28
22 23 24 24 25 26 26 25 23 22 22 22 22 21 21 22 21 21 20 20 20 20 20 19 19 20 21 22 23 24 24 24 24 23 23 24 24 24 24 25 26 27
25 25 25 26 26 26 27 27 25 23 22 23 23 23 22 22 22 21 20 20 19 20 20 19 18 19 21 22 23 24 24 24 24 23 23 23 22 22 24 25 24 25
27 27 27 27 27 27 27 28 26 24 22 23 24 23 22 22 21 20 20 20 19 20 21 20 18 17 18 20 22 23 23 24 25 24 23 22 21 21 24 24 23 24
29 29 29 29 28 27 27 28 27 25 24 23 24 24 24 23 22 20 20 20 20 21 21 22 21 18 17 18 20 22 23 24 24 24 23 22 20 21 23 23 23 23
32 31 30 30 30 28 28 28 28 27 25 24 25 26 25 24 23 22 21 21 23 23 22 22 23 21 17 17 20 22 22 23 24 24 23 21 20 21 22 22 22 22
34 34 32 31 30 28 28 29 29 28 27 26 26 26 26 26 25 24 23 23 25 25 23 22 24 22 18 17 20 22 22 22 23 24 23 22 21 21 21 21 21 22

ECMWFNIL_700_spd_021.txt.gz
Wind_Speed
17 19 20 22 24 26 27 27 27 26 26 25 24 23 22 21 20 20 20 21 21 20 20 19 17 16 15 15 15 16 16 17 17 18 18 18 18 18 18 18 19 19
17 19 20 23 25 27 28 28 28 27 26 25 23 22 21 20 20 20 21 21 22 21 20 19 17 15 15 15 15 16 17 18 18 18 18 18 18 18 19 19 19 19
18 19 20 23 25 28 29 30 29 28 27 25 24 22 20 20 20 21 21 21 21 21 20 20 18 17 16 16 16 16 17 18 18 19 19 18 18 18 19 19 20 20
19 19 21 23 26 29 30 31 31 29 27 25 24 22 21 20 20 20 21 21 20 20 20 19 19 18 18 17 16 16 17 17 18 19 19 19 20 20 20 20 20 21
20 20 21 24 27 29 31 32 32 30 28 25 24 22 21 21 20 20 20 20 20 20 19 19 19 19 19 18 17 16 17 18 18 19 20 21 21 22 22 22 22 22
21 20 21 24 27 30 32 33 32 30 28 26 24 22 21 20 20 19 20 20 20 19 19 19 19 19 19 18 17 17 18 18 20 21 22 22 23 23 24 24 23 23
21 21 23 25 27 30 32 33 32 30 28 26 24 22 21 20 19 18 18 19 19 19 19 19 20 19 19 18 18 18 19 20 21 22 23 23 23 24 25 25 24 23
23 22 25 27 27 29 32 33 32 31 28 26 24 22 21 20 19 18 18 18 19 19 18 19 20 20 19 18 19 19 20 21 22 23 23 23 24 24 25 26 26 25
23 23 26 27 27 29 32 33 31 29 28 27 26 25 23 21 20 19 19 19 19 19 17 17 18 19 19 18 19 20 21 22 22 22 23 24 24 25 25 25 26 26
23 24 27 27 27 29 32 32 30 29 30 30 29 27 24 23 22 21 21 20 20 19 19 17 17 18 19 19 20 20 21 22 22 22 23 24 24 24 25 25 25 25
24 27 27 26 27 30 31 31 31 31 32 30 28 26 23 22 22 22 22 22 22 21 20 19 18 18 19 19 20 21 21 22 22 22 23 24 24 24 25 25 26 26
26 28 25 25 28 30 30 31 31 30 28 25 22 21 20 19 20 20 21 22 22 22 21 20 20 20 20 20 20 21 22 22 22 22 22 22 23 24 24 24 25 25
28 27 24 25 28 29 29 29 29 27 24 20 19 18 18 18 19 20 20 21 21 21 22 22 22 22 22 22 22 22 22 23 23 23 22 22 22 23 22 22 23 24
27 24 23 26 28 28 28 27 27 25 21 18 17 17 18 18 18 18 19 19 20 22 23 23 23 23 23 23 23 23 22 23 24 24 23 22 21 21 21 22 23 25
26 23 23 26 26 26 27 27 26 23 19 18 17 17 18 18 18 18 18 19 20 22 23 23 23 23 23 23 24 24 23 23 24 25 24 23 22 22 21 22 24 25
25 23 24 26 25 26 27 26 25 22 19 18 18 19 20 20 19 19 19 19 20 22 23 23 22 22 22 23 24 24 24 24 24 25 25 25 25 24 22 22 23 24
22 23 25 25 25 26 26 25 24 22 20 20 21 23 23 23 22 21 20 20 20 21 21 20 21 21 21 21 22 23 23 23 24 24 24 25 25 25 24 23 23 23
20 23 24 25 26 26 25 25 23 22 22 23 25 26 26 25 24 24 23 21 21 21 20 19 20 20 20 20 20 21 22 23 23 24 24 24 25 25 25 25 24 24
21 23 23 24 25 25 24 24 23 23 24 25 26 27 27 26 26 25 25 23 22 21 20 20 20 20 20 21 20 21 22 23 24 25 25 25 25 25 26 26 26 25
22 22 23 24 23 24 24 24 24 24 24 24 26 27 27 27 26 26 26 25 24 22 22 21 21 20 20 21 21 22 23 24 24 25 25 26 25 25 26 27 27 26
21 22 22 22 23 24 24 24 24 24 24 25 25 26 26 26 26 26 26 26 25 24 23 22 21 21 21 21 22 22 22 24 24 25 25 25 24 25 26 27 27 26
20 21 22 23 24 25 25 25 26 26 26 26 26 26 26 26 26 26 27 27 27 26 25 24 22 21 21 22 22 22 22 24 25 25 24 23 23 24 25 25 25 25
20 22 23 25 25 26 27 27 27 27 28 28 27 27 26 25 26 27 28 29 28 28 27 25 23 22 22 22 23 23 23 24 25 24 22 21 22 23 23 23 23 24
21 23 25 26 26 28 29 29 29 29 29 29 28 27 27 26 27 28 29 30 30 29 29 27 26 24 23 23 23 24 24 24 25 23 21 20 21 21 21 22 23 23
22 25 26 28 29 30 31 31 31 31 31 30 28 27 27 28 28 29 30 30 31 31 30 28 27 25 23 22 23 23 24 24 24 23 20 19 20 21 20 21 22 23
25 28 30 32 34 35 35 35 34 33 31 28 26 26 27 28 29 30 30 30 30 30 28 27 27 25 22 21 22 23 24 24 23 22 21 20 20 21 21 20 21 21

ECMWFNIL_700_spd_024.txt.gz
Wind_Speed
11 13 14 16 17 18 20 22 25 27 29 29 27 24 22 20 19 18 17 16 16 16 16 16 16 16 16 15 15 15 15 15 16 17 18 18 18 18 17 17 17 18
12 13 15 16 17 18 20 22 25 27 28 29 27 24 22 20 19 18 17 16 16 15 15 16 16 15 15 15 15 15 15 15 15 16 17 17 18 18 18 18 18 18
14 15 16 17 18 18 20 23 25 26 28 29 28 25 22 20 19 18 17 16 15 15 15 15 15 15 15 15 15 15 15 14 15 16 17 17 18 18 19 19 18 18
17 17 17 18 18 19 20 23 25 26 28 29 29 25 22 19 18 17 16 15 14 14 15 14 14 14 15 14 14 15 15 14 14 15 17 18 19 19 20 20 19 19
19 19 18 19 20 20 22 24 26 27 28 30 28 25 22 21 19 16 15 15 14 14 14 14 14 14 14 14 14 14 14 14 14 15 16 18 19 19 20 20 20 20
21 21 21 22 22 22 23 26 28 27 28 29 28 25 23 21 18 15 14 14 14 14 14 14 14 14 14 14 13 13 13 14 15 16 17 18 19 19 19 20 20 21
24 24 24 24 23 23 24 27 29 28 28 29 27 24 22 19 16 14 13 13 13 14 14 14 14 15 16 16 14 14 14 15 16 17 18 18 19 19 20 20 20 21
26 26 26 25 24 24 25 28 29 28 28 28 26 23 20 17 15 13 12 12 12 12 13 14 14 16 17 17 16 16 16 16 17 17 18 18 19 20 21 21 21 21
29 28 27 26 25 24 26 29 29 28 28 27 25 21 19 17 15 13 11 11 11 11 12 13 14 15 16 17 17 17 17 18 19 18 18 18 19 20 21 22 22 21
31 30 29 27 26 26 29 31 28 27 28 26 23 20 18 17 15 12 11 10 10 11 12 13 14 15 17 17 18 19 19 19 20 19 19 19 19 20 21 22 22 21
33 32 31 29 27 27 30 29 26 27 27 24 22 20 18 17 15 14 14 13 13 13 13 14 15 17 18 18 19 19 19 19 20 20 20 20 20 21 21 21 21 21
35 34 33 30 27 27 28 26 25 27 26 23 22 20 18 16 16 17 17 17 17 17 16 17 17 18 18 18 18 18 19 19 20 20 20 20 20 20 21 21 21 21
36 35 34 31 27 26 26 25 25 26 25 23 21 18 16 16 17 18 18 18 19 19 19 19 20 20 19 18 18 18 19 19 19 19 19 19 20 20 20 20 20 21
36 35 33 30 27 26 25 24 25 25 23 20 18 15 15 16 17 17 17 18 19 20 21 21 21 21 20 19 18 18 19 19 19 19 18 18 19 19 20 20 20 20
35 35 33 29 26 26 25 24 24 23 20 18 15 14 15 16 17 18 18 18 19 20 21 21 21 20 19 19 18 18 19 19 19 19 19 18 18 19 20 20 20 20
35 35 31 27 25 25 24 24 23 21 19 17 16 16 17 18 19 19 18 18 18 19 20 21 20 20 19 19 19 19 19 19 20 20 19 19 20 20 20 20 20 20
32 30 27 24 23 23 23 23 21 18 17 16 17 18 19 19 19 20 19 19 18 19 20 20 21 21 21 20 20 20 20 20 20 20 20 21 21 21 21 20 20 20
24 22 22 21 22 23 23 21 18 16 15 16 18 19 19 18 19 21 21 20 20 20 20 20 21 22 23 22 22 21 21 21 21 21 22 22 22 23 23 23 22 21
17 18 19 20 21 22 21 18 16 15 15 16 18 19 19 20 20 22 23 22 22 23 23 22 22 23 24 24 22 21 22 23 22 22 22 22 23 24 25 24 23 23
16 17 17 18 20 20 18 16 16 16 17 18 19 20 21 22 23 23 24 24 24 25 26 25 24 24 25 23 21 20 22 23 23 23 23 23 23 24 24 23 23 23
15 16 17 18 19 18 16 16 16 18 19 19 21 23 24 25 24 24 24 25 26 26 26 26 25 26 25 23 20 20 22 23 23 23 23 23 23 22 22 22 22 23
14 16 18 18 17 16 15 15 17 19 20 21 22 24 26 26 25 26 28 28 26 26 25 25 26 26 24 22 21 21 23 23 23 23 23 23 23 22 21 21 22 23
14 17 17 16 15 15 14 16 18 19 20 22 24 25 27 28 28 28 29 28 26 26 26 24 25 26 24 21 22 23 24 24 23 22 23 23 23 22 20 21 22 23
14 17 17 15 14 14 15 17 19 20 22 24 26 27 28 30 31 32 33 31 25 23 24 24 25 26 24 22 23 24 25 24 22 22 23 23 23 21 20 20 22 23
16 17 16 15 14 14 16 18 19 21 23 25 26 26 27 28 29 31 33 33 27 21 20 22 24 25 24 23 23 24 23 22 22 22 22 23 22 20 19 20 22 24
16 15 14 14 14 15 17 19 21 22 23 25 26 27 27 27 27 27 27 27 27 25 23 22 22 24 24 22 22 22 22 22 24 24 23 22 22 20 19 20 22 24

ECMWFNIL_700_spd_027.txt.gz
Wind_Speed
12 11 11 10 10 11 13 13 14 17 20 22 23 24 25 25 24 22 20 18 16 14 13 13 13 14 14 14 14 14 14 14 15 16 16 16 16 16 16 17 18 19
14 14 13 13 13 13 14 15 15 17 20 23 24 25 26 26 25 23 22 20 17 14 13 13 13 14 14 14 15 14 14 14 15 15 16 16 16 17 17 18 19 20
17 16 16 15 15 16 16 16 16 17 20 23 26 26 26 26 26 25 23 20 18 15 14 14 14 14 14 14 14 15 15 15 15 15 15 16 17 18 19 19 19 20
19 18 18 18 18 18 18 18 18 18 20 24 26 26 27 27 27 25 23 21 18 16 15 14 14 14 14 14 14 14 15 15 15 15 15 16 18 19 20 20 19 19
22 21 21 20 19 20 20 19 19 19 20 23 26 26 27 28 26 24 23 21 19 16 15 14 14 14 14 14 13 14 14 15 15 15 15 16 18 19 19 19 19 19
25 24 23 22 21 22 21 20 20 19 20 24 26 26 27 27 26 24 22 20 18 17 15 14 13 13 14 13 12 12 13 14 15 15 15 16 18 18 19 19 19 19
27 26 25 24 24 23 22 20 20 19 20 24 25 25 27 27 25 23 21 19 17 16 15 14 14 14 14 13 12 12 13 13 15 16 16 17 17 18 19 19 18 19
29 28 28 27 26 24 23 22 20 19 21 23 24 25 26 26 24 21 19 17 15 14 13 14 14 14 14 14 14 14 15 15 15 16 17 17 17 18 18 19 19 19
31 30 30 29 27 25 24 23 21 20 20 22 23 24 25 24 22 19 17 15 13 13 12 13 14 14 15 15 16 17 17 17 16 16 17 18 18 18 18 19 19 19
32 32 32 31 28 27 26 24 21 20 20 21 22 24 24 22 20 17 15 14 13 12 11 12 13 14 16 17 18 18 18 18 17 17 18 19 19 18 18 19 19 19
33 34 34 32 30 28 27 23 22 20 17 19 21 23 22 20 18 16 15 14 12 11 11 12 13 15 16 17 18 18 18 18 18 19 19 20 20 19 19 19 20 20
33 34 34 33 31 29 27 25 24 21 19 21 22 21 20 19 17 16 15 14 12 11 12 13 14 15 16 17 17 17 18 18 19 20 20 21 20 19 19 20 20 20
31 33 34 34 32 29 28 26 25 24 24 23 19 18 18 17 16 16 16 15 13 13 13 14 14 15 16 17 18 18 19 19 20 21 21 21 21 20 20 20 21 21
30 33 34 33 32 30 28 26 25 26 23 18 15 16 16 15 16 17 17 16 15 15 15 15 16 17 18 18 18 19 20 21 22 22 22 22 22 21 21 21 22 22
32 34 34 34 32 30 28 27 26 25 19 14 15 16 15 16 17 18 18 17 17 17 17 17 18 18 19 19 19 20 21 22 23 23 23 23 23 23 22 22 23 23
33 34 34 34 33 32 31 29 26 20 15 14 16 15 16 17 18 19 19 18 17 18 18 18 19 19 20 21 21 22 22 23 24 24 24 24 24 24 24 23 23 24
32 33 34 34 34 33 30 26 20 15 14 15 16 16 17 18 18 19 19 18 19 19 19 19 20 21 22 22 22 23 24 24 24 24 25 25 25 25 24 23 23 24
29 31 35 34 32 29 25 19 15 14 15 16 16 16 17 18 19 19 19 20 21 21 20 20 20 23 24 23 23 24 25 25 25 25 25 25 25 25 25 24 24 23
26 29 31 27 23 21 17 15 15 15 16 16 16 15 16 18 19 19 20 22 23 23 23 23 23 25 27 27 26 25 26 27 26 26 27 26 26 26 26 25 25 24
23 25 23 17 15 15 13 14 15 15 16 16 14 15 16 18 19 21 23 25 26 27 27 27 28 29 31 32 30 26 26 27 27 27 28 27 27 27 26 25 25 25
22 20 15 14 15 13 12 15 16 16 16 15 15 16 18 19 21 24 26 28 29 30 31 32 33 34 35 36 33 27 25 27 28 28 29 28 27 26 25 25 26 26
20 14 11 15 15 11 12 16 17 16 16 16 18 18 18 19 22 25 27 30 30 31 32 33 35 37 39 41 38 30 26 26 28 29 29 27 25 24 25 26 27 27
15 10 11 15 15 13 14 17 17 17 17 18 19 19 19 21 23 25 27 29 29 29 29 30 31 34 36 38 37 32 28 27 28 28 28 25 22 23 25 27 28 28
11 10 14 16 16 15 15 16 17 18 19 20 20 20 20 22 24 26 27 28 28 27 27 27 28 28 29 32 32 31 31 30 29 28 27 23 21 23 26 29 29 28
10 13 17 19 18 16 15 17 19 20 20 21 21 21 21 22 25 28 28 28 27 27 27 29 27 25 25 28 30 31 32 33 32 30 26 23 24 26 28 30 30 28
13 17 20 21 19 16 16 19 20 20 20 21 22 22 22 23 25 28 28 27 27 28 29 29 28 27 25 27 30 32 33 34 34 32 28 25 27 29 30 30 29 27

ECMWFNIL_700_spd_030.txt.gz
Wind_Speed
15 14 13 12 12 11 10 10 10 11 11 12 14 16 19 21 21 21 23 22 21 20 18 17 15 14 14 14 13 13 13 13 13 13 14 14 14 14 14 15 15 16
17 16 16 15 14 14 14 13 13 12 12 13 14 16 19 21 20 21 22 22 20 19 17 16 15 14 14 14 13 13 13 14 14 14 14 15 15 15 15 15 16 17
19 18 17 16 16 17 17 16 15 14 14 14 15 16 19 20 20 21 22 21 20 18 17 15 14 13 14 14 13 14 14 14 14 14 14 15 15 16 16 16 17 17
22 21 19 19 19 19 19 18 17 16 16 16 16 17 18 20 20 21 22 21 19 18 16 15 14 13 13 13 13 13 14 14 15 15 15 15 16 16 16 17 17 17
24 23 22 22 22 22 21 20 18 17 18 18 18 18 18 20 21 21 22 22 20 18 17 15 14 14 13 13 13 13 13 14 16 16 16 16 16 16 17 17 17 17
27 26 25 25 25 25 23 22 20 19 20 19 19 19 19 20 21 21 22 22 20 18 17 15 15 15 15 14 14 14 14 14 16 17 17 17 17 16 17 18 18 18
30 29 29 28 28 26 25 23 21 21 21 21 20 20 21 21 21 22 22 21 19 18 17 16 15 16 16 16 15 15 15 15 16 17 18 17 17 17 18 19 19 18
33 33 32 31 29 28 26 24 23 23 23 22 22 22 21 21 21 22 22 20 18 17 16 15 15 15 16 16 16 16 16 16 17 17 17 17 17 17 19 20 20 20
34 36 34 33 32 30 28 26 25 24 25 24 23 22 20 20 23 23 22 20 17 16 15 14 14 14 15 16 15 15 15 15 16 17 16 17 17 18 19 21 21 20
33 36 37 35 34 31 29 28 27 27 26 25 24 22 20 21 24 23 21 19 16 14 14 13 13 13 14 14 14 14 14 14 15 16 16 17 18 19 20 21 21 21
32 34 37 37 35 33 31 30 30 29 28 27 26 24 22 22 23 21 19 18 14 13 13 12 12 13 13 14 14 14 14 14 15 15 16 17 18 20 21 21 22 22
34 34 36 37 35 33 32 32 31 31 30 30 28 24 22 22 21 20 19 16 12 12 12 12 12 13 13 13 14 15 15 16 16 17 17 18 19 20 22 22 22 22
39 37 36 35 34 32 32 32 32 33 33 31 27 23 22 20 18 18 18 14 11 12 12 12 13 14 14 14 14 15 16 17 18 19 19 19 20 21 22 23 23 23
45 40 33 30 31 31 32 33 34 35 34 31 27 25 22 18 17 18 16 12 12 12 12 12 14 15 16 17 17 18 19 19 20 21 21 21 22 23 24 24 24 24
47 40 30 28 32 33 33 35 36 35 34 31 28 26 22 18 19 18 15 13 13 12 12 14 15 17 19 20 21 21 22 23 24 24 24 25 24 24 25 25 25 25
46 41 33 29 33 36 35 35 36 35 33 31 28 24 19 17 18 17 14 13 13 13 14 16 17 19 21 22 24 24 25 26 27 27 28 29 27 26 25 25 26 26
42 39 33 31 31 33 33 34 34 33 32 31 27 20 16 17 17 15 13 13 13 14 16 18 20 22 23 25 26 27 28 30 30 31 31 32 31 29 27 26 26 27
40 33 31 31 29 30 33 33 31 30 30 31 26 18 16 17 16 14 13 13 14 16 18 20 22 24 26 28 29 30 31 33 34 34 34 34 34 33 30 27 27 28
37 29 28 28 26 31 37 34 29 28 28 26 21 17 17 17 16 14 14 14 16 18 19 21 23 25 27 30 32 33 34 35 36 36 36 36 36 36 33 30 28 29
32 28 26 23 24 33 36 30 27 27 25 22 18 17 17 16 15 15 15 16 18 20 22 23 24 25 27 30 31 33 34 36 37 38 37 36 35 36 35 32 30 30
29 26 24 21 22 28 30 27 25 24 23 20 18 17 16 16 16 17 17 18 20 22 24 26 25 26 27 28 30 31 34 36 38 39 39 37 34 34 35 34 32 31
28 26 24 22 21 23 26 25 23 23 24 21 17 15 16 17 18 18 18 20 22 24 27 28 27 27 28 29 30 32 34 37 38 39 39 37 33 32 35 36 34 31
26 24 24 23 23 24 24 22 22 23 24 20 16 15 17 19 19 20 21 22 24 26 28 29 29 29 30 31 32 33 35 37 38 39 38 36 34 33 35 37 36 33
24 22 24 25 24 23 22 21 22 22 20 17 15 16 18 20 21 22 23 24 26 27 28 29 29 30 31 33 33 34 36 37 38 38 37 36 35 34 37 39 37 32
24 23 26 26 22 21 22 22 21 19 18 16 16 18 19 22 24 25 24 25 26 27 28 29 29 30 31 33 34 35 37 37 37 37 38 37 36 36 40 41 37 31
23 23 24 22 22 23 23 22 19 17 16 16 17 19 22 24 24 24 23 22 24 26 27 28 29 29 30 32 35 36 37 37 37 36 36 38 38 39 40 40 37 31

ECMWFNIL_700_spd_033.txt.gz
Wind_Speed
19 18 17 16 15 14 14 13 12 11 11 10 10 10 12 13 14 15 17 18 19 20 19 19 17 16 14 13 12 11 11 11 11 12 12 13 13 13 14 14 14 15
20 19 19 18 17 17 16 15 14 14 13 12 12 12 13 14 15 15 17 19 20 21 20 19 18 16 15 13 12 11 11 11 12 12 13 14 14 14 14 14 15 15
21 21 20 20 20 19 18 18 17 16 15 14 13 13 14 15 16 16 18 20 21 21 21 19 17 16 15 13 12 11 11 11 12 12 13 14 14 14 15 15 15 15
23 23 23 23 23 22 22 21 20 19 17 16 15 15 16 16 17 18 19 20 21 22 22 19 17 16 15 14 12 11 11 12 12 12 13 14 15 15 15 15 15 15
25 25 26 26 25 25 25 24 22 20 19 18 17 17 17 18 19 19 19 19 20 23 22 20 17 16 15 14 13 12 12 12 12 12 13 14 15 16 16 16 16 15
28 28 28 28 28 28 27 26 23 21 20 20 19 19 19 20 20 20 19 18 20 23 23 20 17 15 15 14 13 13 12 12 12 12 13 14 15 16 16 16 16 16
28 29 30 31 30 30 29 27 25 23 22 21 20 19 20 21 21 21 20 19 21 24 23 20 18 16 15 14 14 14 13 13 13 13 13 13 15 16 16 16 16 16
27 30 32 33 33 32 30 28 26 24 23 22 21 20 19 21 22 22 20 20 22 24 23 20 18 17 16 15 14 14 14 14 14 14 14 14 15 16 16 17 17 17
27 31 35 35 34 33 31 29 26 24 24 23 22 20 20 23 24 23 22 21 23 24 22 19 18 18 17 15 15 15 14 14 14 14 15 15 16 16 17 18 18 18
31 33 35 36 37 37 34 31 27 26 26 25 22 22 24 26 26 25 23 22 23 23 22 19 18 18 17 15 15 15 14 14 14 14 15 16 17 17 18 19 19 19
34 33 31 34 38 39 36 32 30 28 28 26 24 24 28 28 27 26 24 23 23 22 21 21 20 18 16 15 14 14 14 14 14 15 16 17 18 19 20 20 21 21
36 35 33 33 37 39 38 33 31 30 30 28 27 29 31 29 27 26 25 24 23 22 23 23 21 18 15 14 14 14 14 15 16 17 18 20 21 22 23 24 24 24
40 39 36 34 36 38 36 33 33 33 33 33 34 35 34 31 29 27 25 23 22 22 23 23 21 17 14 13 14 15 16 17 18 19 21 22 23 24 25 26 27 27
39 38 37 36 36 37 36 34 34 36 37 38 38 37 34 33 31 28 24 23 23 22 22 21 18 15 13 13 14 15 17 18 19 21 22 23 24 25 26 27 28 28
35 37 40 39 35 36 38 38 35 34 37 39 37 34 33 32 32 29 26 26 25 23 22 20 16 13 12 14 15 16 18 19 20 22 23 25 25 26 27 28 29 29
31 36 43 41 35 36 38 39 37 34 35 36 33 31 29 30 32 32 28 25 24 23 22 19 14 12 13 15 17 18 20 21 23 24 25 26 27 28 29 29 30 30
29 33 36 33 31 34 34 34 35 35 35 35 32 30 28 29 32 32 27 23 22 22 21 17 14 13 14 17 19 21 22 24 25 26 27 27 28 29 30 30 31 31
31 31 29 24 24 26 26 28 33 36 36 35 33 31 29 30 32 31 26 23 23 22 19 16 14 14 16 19 21 23 24 26 27 28 29 29 29 30 30 31 32 32
29 29 25 21 21 24 25 27 31 35 36 35 34 32 31 31 31 28 23 22 22 21 18 16 16 16 19 21 22 24 26 28 30 31 31 32 31 32 32 32 33 33
28 26 22 21 23 25 26 27 29 32 34 34 35 35 33 32 31 26 22 21 21 20 18 17 17 19 21 22 24 26 28 30 32 33 33 34 34 34 34 34 34 33
28 25 24 25 27 26 26 27 27 30 33 35 37 37 34 32 30 26 23 21 21 19 17 18 19 20 23 25 27 29 30 33 34 34 34 35 35 36 37 38 37 36
29 28 26 25 26 25 25 26 27 30 33 35 36 37 35 32 29 26 23 21 20 18 18 20 20 22 25 28 29 30 32 33 35 35 35 35 35 36 38 40 40 38
31 29 24 23 26 26 25 25 26 29 32 33 34 35 33 31 28 25 22 21 19 19 20 21 21 23 27 28 29 31 32 33 34 35 36 36 36 36 37 39 41 39
31 28 24 26 29 26 23 24 26 29 31 31 32 33 31 29 27 24 22 20 20 20 22 23 23 25 27 29 30 31 32 33 33 34 36 37 36 36 36 38 39 40
31 29 26 27 28 27 24 24 25 27 28 29 31 32 30 28 27 24 21 20 21 22 23 25 25 25 27 28 29 29 31 32 33 34 35 36 36 35 36 36 37 39
31 29 26 26 28 27 24 23 24 26 28 29 30 30 29 27 26 24 22 22 23 24 24 25 25 24 25 25 26 27 29 31 32 33 34 36 36 36 37 37 37 38

ECMWFNIL_700_spd_036.txt.gz
Wind_Speed
24 23 22 22 22 23 22 20 19 17 15 13 12 11 11 11 11 11 11 12 14 15 17 18 19 19 18 17 16 15 14 13 11 11 11 11 11 11 12 12 11 11
24 24 23 23 23 24 23 22 21 19 17 15 15 14 14 13 13 12 12 13 14 15 16 18 19 19 18 17 16 15 14 13 12 11 11 11 11 12 12 12 11 10
25 25 24 24 24 24 24 24 22 20 19 18 17 16 16 16 15 14 14 14 15 15 16 18 20 19 18 17 16 16 15 14 13 12 12 12 12 12 13 12 10 10
26 26 26 26 26 26 26 26 24 23 22 21 20 19 19 18 17 16 15 15 15 16 17 19 20 20 19 17 16 16 16 15 14 13 13 13 13 13 13 12 10 10
28 28 28 29 29 29 28 28 27 26 25 24 23 22 21 20 18 17 17 16 16 16 17 19 21 21 19 18 17 16 16 15 14 13 13 13 13 13 13 12 10 10
29 29 30 31 32 31 30 30 30 29 28 27 26 25 23 22 20 18 17 17 17 17 17 19 22 22 20 18 17 17 16 16 15 14 13 12 13 13 13 12 11 11
28 30 31 33 33 33 33 33 33 32 31 29 28 27 25 24 22 20 19 19 20 19 18 20 22 22 20 19 18 17 17 16 15 14 13 12 12 12 13 13 12 12
28 30 32 33 34 35 35 36 36 34 33 31 29 28 27 26 25 23 22 23 23 22 21 21 22 22 21 19 18 18 17 15 14 14 13 12 12 12 13 13 12 13
29 30 31 32 33 34 36 38 38 36 35 32 31 31 30 28 28 28 27 26 25 24 22 21 22 22 21 19 18 18 17 15 13 13 12 11 11 12 13 13 13 14
28 30 31 32 32 33 36 39 40 38 36 34 32 32 32 32 32 33 32 30 28 25 23 22 22 23 22 20 19 18 16 13 12 11 11 11 11 12 13 14 15 15
28 30 31 32 31 31 33 37 40 39 37 37 37 37 38 37 36 37 36 33 30 27 24 23 22 23 24 22 20 18 14 12 11 10 11 12 13 14 15 15 16 17
30 31 31 30 31 32 32 35 39 37 34 34 36 40 44 42 37 36 38 36 32 29 26 24 22 23 24 22 20 17 15 12 11 11 11 13 14 15 17 17 18 18
31 31 31 31 32 33 34 36 38 38 35 32 32 36 43 44 38 35 38 39 35 30 27 24 22 22 23 22 19 18 16 13 12 12 13 14 15 16 18 19 19 20
30 31 32 32 33 34 36 36 36 35 35 34 34 35 39 41 38 35 37 38 36 32 27 25 24 24 24 22 20 18 16 13 13 13 14 16 17 18 19 20 21 22
28 30 32 33 35 36 37 38 34 32 32 34 36 37 38 39 38 36 36 37 35 32 28 27 26 24 22 22 20 19 16 14 14 15 16 18 19 20 21 22 23 25
28 30 30 32 34 35 35 36 33 30 30 32 35 37 37 39 39 36 35 37 36 32 30 29 26 22 20 21 20 18 16 15 16 17 19 20 22 23 24 24 25 27
31 31 30 29 30 31 31 32 30 28 26 27 31 35 36 38 39 37 36 38 37 33 32 30 25 20 20 21 20 18 16 17 18 19 21 22 24 25 26 26 27 28
32 32 30 29 29 30 30 29 30 30 28 26 28 31 34 36 38 37 37 38 38 35 32 29 25 22 23 22 20 19 18 19 20 21 23 24 26 28 28 29 30 30
32 31 30 29 30 30 28 28 30 31 30 28 26 28 31 34 36 37 36 36 38 37 33 29 26 25 25 22 20 19 19 21 22 23 24 26 28 30 30 31 32 32
28 28 28 27 28 29 28 28 30 30 29 28 28 29 31 33 36 38 36 34 36 37 34 29 27 27 25 21 19 19 20 23 24 25 26 27 29 30 31 32 33 34
25 26 26 26 27 28 29 28 29 29 29 28 29 31 32 34 37 38 35 32 36 37 33 29 27 27 25 21 19 20 22 25 26 26 27 28 29 30 32 33 34 35
24 26 26 27 28 29 30 29 29 29 29 29 29 30 33 35 37 38 34 32 36 37 32 27 28 28 25 21 20 22 25 27 27 27 28 30 30 31 32 34 34 34
23 25 26 28 29 30 30 30 30 30 31 30 28 30 34 35 35 37 33 32 36 36 30 27 28 28 25 22 21 24 27 28 28 28 29 30 31 31 33 33 33 33
20 21 24 27 28 29 30 30 30 31 31 31 28 28 33 35 35 35 30 30 36 35 29 28 28 27 26 23 23 26 28 27 28 28 28 29 30 32 32 32 33 33
18 19 22 25 26 27 28 28 30 31 31 30 27 27 31 35 36 32 27 31 37 34 29 29 28 27 26 25 25 28 28 26 27 27 26 26 29 31 31 31 33 33
19 20 22 24 26 27 27 29 31 31 31 31 28 27 31 35 35 30 28 34 38 34 32 33 31 28 28 26 26 27 25 24 25 24 23 24 26 28 29 30 31 32

ECMWFNIL_700_spd_042.txt.gz
Wind_Speed
24 25 26 25 24 23 22 20 20 21 21 22 21 20 20 19 18 17 15 15 15 14 13 12 11 11 12 13 14 16 17 17 16 15 15 15 15 13 12 12 11 11
25 26 26 25 24 22 22 21 21 21 22 23 22 22 22 21 20 20 18 17 17 17 16 14 13 13 12 12 13 16 18 20 19 17 16 15 15 15 14 12 11 11
26 26 25 25 23 22 23 22 21 22 23 23 24 24 23 23 22 22 21 19 19 19 18 17 16 15 14 13 14 17 21 23 23 19 17 16 16 16 15 13 11 10
26 26 25 24 23 23 23 23 22 23 23 23 25 26 24 24 23 23 23 22 22 22 21 19 18 18 18 18 18 20 22 26 26 22 19 18 17 16 15 13 11 10
26 26 25 24 24 24 24 24 24 24 24 24 26 26 25 25 24 24 25 25 24 24 23 22 21 22 23 23 23 23 24 26 27 24 20 19 18 17 16 13 12 11
25 25 25 24 25 26 25 25 25 25 25 25 26 27 27 26 25 25 26 26 26 26 25 24 23 23 25 27 27 27 26 26 26 24 21 20 19 19 17 14 12 11
24 24 25 25 25 26 26 26 26 26 26 27 28 28 28 28 26 26 27 27 28 28 28 27 26 25 28 29 29 29 27 25 24 24 23 22 21 19 17 15 13 11
24 24 24 25 26 26 27 27 27 27 28 29 30 29 29 29 28 28 28 28 29 30 30 30 29 29 30 31 30 29 27 25 25 25 24 23 21 19 16 15 14 12
23 23 24 25 26 26 27 28 27 27 28 30 31 31 30 30 30 31 30 30 30 31 32 32 31 32 33 34 33 31 30 28 26 25 25 23 21 18 16 16 15 12
22 22 24 25 26 26 28 29 28 28 29 30 31 32 32 31 31 32 33 33 32 32 32 34 34 34 34 35 35 34 33 30 27 26 25 23 21 18 17 16 15 13
22 22 23 24 25 26 27 28 29 29 29 30 31 32 32 31 32 33 33 33 33 31 30 33 35 36 35 35 36 36 35 33 30 28 26 24 23 20 18 17 16 15
23 22 22 22 24 25 25 26 27 28 28 29 30 31 32 31 32 33 31 31 32 30 29 31 34 35 36 36 36 37 37 35 33 30 27 25 24 22 20 18 17 15
23 22 21 21 22 22 22 23 25 27 28 27 28 30 32 31 31 31 30 30 31 31 30 31 32 33 34 36 37 37 37 35 32 29 27 25 24 23 21 19 18 16
22 22 22 21 21 20 21 22 23 26 28 28 28 29 31 31 30 30 30 31 31 32 33 33 33 32 31 33 36 36 36 35 32 29 27 25 24 24 22 20 19 17
22 23 23 22 22 22 22 22 23 26 28 30 29 30 31 32 31 30 31 33 33 33 35 35 35 34 31 31 34 35 35 35 33 28 26 26 25 24 23 21 20 18
24 24 24 24 23 23 22 22 24 27 29 31 31 32 33 34 33 32 33 35 35 35 35 36 36 36 33 32 33 34 34 35 32 27 26 27 26 25 23 22 20 19
25 25 24 24 24 23 23 24 26 28 30 32 33 34 35 35 35 35 35 36 37 37 37 36 36 36 34 33 33 33 33 35 33 27 25 28 27 25 25 23 22 20
26 25 25 24 24 24 24 25 27 29 31 33 34 35 36 37 37 37 37 36 37 38 37 37 37 35 34 34 34 33 33 35 35 29 26 29 28 27 27 26 23 21
25 25 25 25 25 25 26 27 29 31 32 34 35 36 37 38 39 39 38 37 37 36 36 36 36 35 35 36 35 34 34 35 36 31 27 30 30 29 29 27 24 21
25 25 25 24 26 28 29 30 31 32 33 34 36 36 36 36 36 37 37 37 36 35 34 35 34 34 36 37 35 36 36 37 36 31 29 32 32 30 29 28 24 22
25 25 25 26 28 30 31 31 31 32 33 32 32 32 31 30 31 32 33 34 34 34 34 35 34 33 36 37 36 37 37 36 36 33 31 33 33 30 30 29 26 23
24 25 26 29 30 31 30 30 30 30 29 28 28 27 27 28 28 29 30 31 33 35 36 37 34 33 36 37 36 37 37 36 37 36 34 35 34 33 32 29 27 24
26 28 30 30 30 30 29 28 27 27 26 26 25 26 27 27 26 27 28 29 31 35 38 39 35 33 35 37 36 38 39 38 39 38 35 34 35 35 34 31 29 26
30 31 31 30 28 27 26 25 25 25 25 25 24 25 26 26 26 26 28 29 31 34 39 39 35 33 35 36 36 38 39 39 40 41 38 36 36 38 36 33 29 27
32 31 30 28 26 24 23 23 24 25 25 24 23 23 24 26 27 27 28 30 32 35 39 39 35 32 33 35 36 37 37 39 41 43 41 38 37 38 37 32 29 30
31 29 27 25 23 22 22 23 24 24 25 23 22 22 23 25 27 29 31 33 34 35 37 37 35 33 32 32 33 33 35 40 43 42 41 37 34 34 34 32 31 33

ECMWFNIL_700_spd_045.txt.gz
Wind_Speed
21 20 21 22 22 21 20 20 19 17 15 14 14 15 16 16 16 16 14 14 14 14 12 12 13 13 13 14 14 14 15 17 19 21 22 22 19 16 15 16 17 16
21 21 21 22 22 21 20 19 18 18 16 15 15 16 16 17 18 17 16 16 17 17 16 15 15 15 15 16 17 17 18 19 21 22 22 23 21 17 15 16 17 17
21 21 22 22 21 21 19 18 18 18 18 17 17 18 17 17 18 17 16 17 18 19 19 19 18 17 17 19 20 21 20 20 21 22 23 23 22 19 17 16 17 17
21 22 22 22 21 21 20 19 18 19 19 18 17 18 18 18 17 17 17 18 20 21 22 21 21 20 19 20 22 24 23 22 22 22 23 23 22 21 20 18 17 17
21 22 22 22 22 22 21 19 19 20 20 19 18 18 18 18 18 18 18 19 20 23 24 24 23 23 22 22 24 26 26 25 24 24 24 23 23 23 22 19 17 16
22 22 23 22 22 22 21 20 20 20 21 20 19 18 18 19 19 18 19 20 21 24 26 26 25 25 25 24 25 26 27 27 27 27 26 25 25 24 23 20 17 16
21 22 23 23 23 22 22 22 21 21 21 21 20 19 19 19 19 18 19 20 22 25 27 27 27 26 26 26 26 26 27 28 28 28 27 27 26 25 23 20 17 16
21 22 23 23 24 23 22 22 22 21 21 21 20 20 20 19 19 19 19 20 22 24 26 27 27 27 27 27 26 26 27 28 29 29 28 28 27 25 24 21 17 16
21 22 23 23 24 23 23 23 22 21 21 20 20 21 21 20 20 20 20 21 22 24 26 27 28 28 28 28 27 27 27 28 29 29 29 29 28 26 25 22 18 17
21 22 23 23 23 23 23 23 22 22 21 20 20 20 21 21 21 21 21 22 23 24 25 27 28 28 28 28 28 26 26 27 28 29 29 29 29 28 26 23 20 18
21 21 22 22 23 23 23 23 22 21 20 19 19 20 21 21 20 20 20 21 22 23 24 26 27 28 29 28 27 26 25 25 27 28 29 30 30 28 26 24 21 19
21 21 21 21 21 21 21 21 21 20 20 19 19 20 20 19 18 17 17 19 21 21 22 24 26 27 28 27 26 26 25 25 25 27 29 31 31 28 27 26 22 19
22 20 20 20 20 19 19 19 19 20 19 19 18 19 19 18 17 16 16 18 20 21 22 24 26 27 29 28 28 28 28 27 27 27 28 30 30 29 28 26 21 19
23 21 20 20 20 19 19 18 18 19 19 18 19 19 18 17 17 18 19 20 22 22 23 25 27 28 30 31 30 29 30 29 29 28 25 26 28 29 27 25 20 19
24 23 23 22 21 21 20 19 19 19 19 19 20 19 19 19 19 20 22 23 24 24 24 26 28 30 31 32 32 30 29 30 30 28 24 23 27 28 26 23 20 20
27 26 25 24 23 22 20 20 20 20 21 21 20 20 20 21 22 23 24 24 25 25 25 26 28 31 32 32 32 31 29 30 30 28 25 22 26 28 25 23 22 22
30 29 27 26 25 23 21 21 21 22 23 22 21 21 21 23 24 24 24 24 26 26 27 27 29 31 33 33 33 31 30 32 31 28 26 23 26 30 28 25 24 24
32 31 30 28 26 25 24 23 23 24 24 23 22 22 23 25 25 25 25 25 26 27 27 28 30 32 33 34 33 31 31 32 31 29 27 25 27 30 29 28 27 26
33 33 32 31 29 27 26 26 25 25 25 23 23 24 25 26 26 26 26 26 25 24 24 26 29 31 32 33 33 32 33 34 32 31 30 29 29 30 31 31 30 27
33 34 34 33 31 30 29 28 27 26 25 25 26 26 26 27 27 28 28 27 24 23 23 25 28 29 31 33 34 33 33 32 31 32 34 33 32 31 32 33 32 30
34 34 34 34 33 32 31 29 27 26 26 27 27 27 27 28 29 30 28 26 24 24 25 26 28 29 32 34 35 34 34 31 30 32 34 33 32 31 31 33 35 33
34 34 34 33 33 32 31 29 27 26 27 27 28 28 29 29 29 28 26 24 23 24 25 26 28 30 33 35 34 35 33 30 29 31 31 29 30 30 31 35 35 32
35 35 34 33 32 31 30 29 27 27 28 28 29 28 28 26 25 23 22 23 24 25 26 28 29 30 33 34 34 33 30 26 27 29 29 27 28 29 31 34 35 32
36 35 33 32 31 30 29 28 28 28 29 28 27 26 24 22 21 21 21 22 24 26 29 30 31 31 33 34 33 31 27 25 27 29 29 28 29 29 32 35 37 34
37 35 33 31 30 29 28 28 29 29 28 26 24 22 21 20 21 21 22 22 24 27 30 32 32 33 34 33 31 28 26 27 31 32 31 30 30 32 35 37 36 33
40 36 33 31 29 28 28 29 29 28 25 23 21 21 21 20 21 21 21 22 25 29 31 32 33 35 34 30 29 29 29 32 34 33 31 32 32 33 34 34 33 32

ECMWFNIL_700_spd_048.txt.gz
Wind_Speed
23 23 23 23 23 21 20 21 19 17 16 15 15 16 15 15 16 17 16 16 15 14 13 13 13 12 11 10 12 13 15 17 17 17 18 19 20 20 19 18 16 13
24 23 24 24 23 22 22 21 20 18 16 15 15 15 16 16 17 17 17 17 17 16 15 15 15 14 13 13 14 16 17 19 18 18 19 20 21 20 19 20 20 17
25 24 24 24 23 22 22 21 20 18 17 16 16 16 16 16 16 17 17 17 17 18 18 17 16 16 16 15 16 17 19 20 20 20 20 21 21 21 20 20 21 20
25 25 24 24 23 22 22 22 21 19 18 17 16 16 17 17 16 16 16 17 18 19 19 19 18 18 18 18 18 19 20 21 21 21 21 22 22 22 22 21 21 21
25 24 24 24 23 23 23 23 21 20 19 17 17 17 17 17 16 15 15 16 18 19 20 20 20 20 20 20 20 20 21 22 22 23 23 23 23 23 23 22 21 21
24 24 24 24 24 24 23 22 21 20 19 18 18 17 17 17 15 14 15 16 17 19 20 21 21 22 22 22 22 22 23 23 23 23 23 24 24 24 24 23 22 21
24 24 24 24 24 24 23 22 21 21 20 19 19 18 18 17 16 14 14 15 17 18 20 21 22 23 24 24 24 24 24 24 24 23 23 24 24 24 24 23 23 21
23 23 24 24 25 25 24 23 22 21 20 20 20 19 18 18 16 15 15 16 17 17 19 21 22 23 25 25 24 25 25 26 26 25 24 24 24 24 23 23 23 21
24 24 25 25 25 25 24 23 22 21 21 21 20 20 20 18 16 16 16 17 17 18 19 20 21 23 24 24 24 24 25 26 26 26 26 24 23 23 23 23 23 22
24 25 25 26 25 25 24 23 22 22 21 21 21 21 20 18 17 16 16 17 17 18 19 20 21 22 23 24 24 24 25 25 26 27 26 24 22 23 23 23 22 21
25 26 26 26 25 25 24 23 22 22 21 21 21 21 19 19 18 17 17 16 16 17 18 20 20 21 22 23 24 23 23 24 25 26 26 24 23 23 24 24 23 22
26 26 26 26 25 24 24 23 22 22 21 22 21 20 19 19 19 18 17 15 15 16 18 18 19 19 20 21 22 22 22 23 24 25 25 24 25 24 24 24 23 23
27 27 26 25 24 24 23 23 23 22 22 22 21 20 20 19 19 17 16 15 16 16 17 17 18 18 19 21 22 22 23 23 24 25 25 25 25 24 24 24 24 23
28 27 26 25 24 24 24 24 23 23 22 22 21 21 20 19 18 17 16 16 16 16 17 18 18 19 20 21 22 22 23 24 25 26 26 25 25 24 23 23 24 24
29 27 26 26 26 25 25 25 24 24 23 22 22 21 20 19 18 18 18 18 17 18 18 19 19 19 20 21 22 23 24 25 26 27 27 27 27 26 23 22 23 25
30 28 28 28 27 27 26 25 24 24 23 23 23 21 20 20 19 19 19 18 18 19 19 19 20 20 21 22 23 23 24 25 26 26 27 28 28 27 26 25 25 25
32 30 29 29 28 27 27 26 25 25 25 24 23 22 22 21 21 20 19 18 19 20 20 20 20 20 22 24 24 25 26 25 25 26 28 29 27 28 28 27 25 24
34 32 31 31 30 29 27 27 26 26 26 26 25 24 23 22 22 21 19 19 20 20 20 20 19 20 22 25 27 28 25 23 22 25 29 29 28 28 28 27 26 24
36 35 33 32 31 30 29 28 29 29 29 28 26 24 23 24 24 22 21 21 21 20 20 19 20 20 22 26 31 30 24 22 22 22 24 27 28 27 27 27 26 24
37 37 35 34 33 32 31 31 30 31 30 29 27 26 26 25 23 22 22 22 21 20 20 20 20 20 21 26 32 32 27 22 19 20 22 24 25 26 26 26 25 25
39 38 37 36 36 35 34 33 32 32 31 30 28 27 26 24 23 23 23 22 21 21 20 20 19 19 21 25 29 33 32 25 19 19 21 22 22 23 24 24 24 26
39 39 38 38 38 38 38 36 35 34 32 31 30 28 26 25 25 25 24 22 22 21 21 21 20 19 20 23 27 31 33 30 25 19 18 18 19 21 22 22 23 26
37 39 39 39 39 39 40 39 38 36 34 33 31 30 27 26 26 25 24 23 23 22 21 21 19 18 20 22 26 29 31 32 29 23 19 19 19 20 21 22 24 26
36 38 39 40 40 40 41 41 40 38 36 34 33 30 28 27 27 27 26 25 24 23 22 20 18 18 20 22 25 29 31 32 31 26 23 23 23 22 23 24 26 27
34 38 40 40 41 41 41 41 41 39 37 35 33 31 29 28 29 29 28 26 25 23 21 19 17 18 21 23 25 28 31 32 32 30 27 26 26 25 25 25 25 24
32 37 41 41 41 42 42 41 40 38 36 34 33 32 31 30 29 29 27 26 24 20 18 18 19 21 23 24 26 29 30 31 32 31 28 26 26 25 25 24 21 18